STARLINK-2104, 47384

Orbit data source: Space-Track

STARLINK-2104, 47384 is a payload satellite owned by SpaceX/Seattle (US) in LEO that was launched on Wed, 20 Jan 2021 UTC via an FALCON 9 launch vehicle from the Air Force Eastern Test Range (AFETR). Payload-class satellites include a variety of spacecraft equipped with specific instruments for various scientific and technological missions. These include communications satellites like Starlink; space stations such as the ISS; scientific satellites like the Hubble; Earth observation satellites from companies like Planet Labs, Umbra, and HawkEye 360; GPS; miniature CubeSats for education and research; and military/defense satellites.

Loading next visibility...
Identifier
47384, 2021-005AM
Orbit
LEO
Country
Flag of USUS
Related business
Manufacturer
SpaceX/Seattle
Mission
Operational Commercial Communications
Bus & Motor
STARLINK, Unknown motor
Mass
260 kg wet, ~248 kg dry
Launch date (UTC)
2021-01-20 (5 years ago)
Launch vehicle
FALCON 9
Launch site
Air Force Eastern Test Range (AFETR)
Object type
Payload
Rocket body
Debris
Shape & HBR
Box + 1 Pan, 10.1 m
Radar Cross Section
13.562 m², Large (>1 m²)

Expand to show TLE details & history
Last TLE update: 2 days ago

TLE from 2 days ago
0 STARLINK-2104
1 47384U 21005AM  26171.50003471 -.00019661  00000-0 -62325-3 0  9997
2 47384  53.1576 279.1317 0001595  79.1260  47.5046 15.31710213  5858
Epoch: 2026-06-20T12:00Z
TLE epoch observation values (Epoch: 2026-06-20T12:00:02.998Z)
Latitude
40.07948°
Longitude
-28.42229°
Altitude
473.577 km
Speed
7.635 km/s
True Right ascension
04h 01m 12s
True Declination
39° 54' 11"
Sunlit
Object was in daylight at epoch
Visualization orbit readout
Latitude
Unknown
Longitude
Unknown
Altitude
Unknown
Speed
Unknown
Apparent Right ascension
Unknown
Apparent Declination
Unknown
Sunlit
N/A
Visualization observer readout
Local Sidereal Time
23:20:00
Azimuth
Unknown
Elevation
Unknown
Doppler factor
Unknown
Orbital elements
Apogee altitude
472.059 km
Perigee altitude
469.874 km
Semi-major axis
6,849.104 km
Eccentricity
0.00016
Inclination
53.1576°
RAAN
279.1317°
Arg. of periapsis
79.126°
True anomaly
47.51808°
Mean anomaly
47.5046°
Eccentric anomaly
47.51134°
Mean motion
3.82906 °/min
Orbital period
94.02 mins
BSTAR
-0.00062325
Loading maneuver chart data...
Computing Atmospheric mass density...

Documentation

Showing up to 5 results
|